Total_Precipitation_Accumulation
0.00 0.00 0.00 0.00 0.00 0.00 0.00 0.00 0.00 0.00 0.00 0.00 0.00 0.00 0.00 0.00 0.00 0.00 0.00 0.00 0.00 0.00 0.01 0.01 0.01 0.01 0.02 0.01 0.01 0.00 0.01 0.02 0.03 0.02 0.01 0.02 0.03 0.02 0.01 0.00 0.00 0.00 0.00 0.01 0.01 0.00 0.00 0.00 0.00
0.00 0.00 0.00 0.00 0.00 0.00 0.00 0.00 0.00 0.00 0.00 0.00 0.00 0.00 0.00 0.00 0.00 0.00 0.00 0.00 0.00 0.00 0.00 0.00 0.00 0.01 0.02 0.01 0.00 0.00 0.01 0.01 0.03 0.03 0.02 0.03 0.02 0.02 0.02 0.00 0.00 0.00 0.04 0.07 0.06 0.01 0.00 0.00 0.00
0.00 0.00 0.00 0.00 0.00 0.00 0.00 0.00 0.00 0.00 0.00 0.00 0.00 0.00 0.00 0.00 0.00 0.00 0.00 0.00 0.00 0.00 0.01 0.01 0.02 0.01 0.03 0.02 0.00 0.00 0.00 0.00 0.00 0.00 0.01 0.01 0.01 0.01 0.01 0.00 0.00 0.02 0.09 0.14 0.13 0.03 0.00 0.01 0.01
0.00 0.00 0.00 0.00 0.00 0.00 0.00 0.00 0.00 0.00 0.00 0.00 0.00 0.00 0.00 0.00 0.00 0.00 0.01 0.01 0.01 0.01 0.02 0.04 0.13 0.08 0.04 0.04 0.03 0.00 0.00 0.00 0.00 0.01 0.04 0.03 0.01 0.00 0.01 0.02 0.01 0.05 0.11 0.19 0.17 0.06 0.01 0.01 0.02
0.00 0.00 0.00 0.00 0.00 0.00 0.00 0.00 0.00 0.00 0.00 0.00 0.00 0.00 0.00 0.00 0.00 0.00 0.02 0.09 0.06 0.06 0.07 0.08 0.22 0.26 0.17 0.10 0.17 0.04 0.04 0.02 0.02 0.04 0.04 0.04 0.02 0.00 0.06 0.04 0.01 0.04 0.11 0.25 0.15 0.05 0.01 0.00 0.02
0.00 0.00 0.00 0.00 0.00 0.00 0.00 0.00 0.00 0.00 0.00 0.00 0.00 0.00 0.00 0.00 0.00 0.01 0.05 0.11 0.13 0.12 0.12 0.16 0.31 0.38 0.48 0.47 0.42 0.18 0.12 0.10 0.05 0.06 0.05 0.10 0.05 0.03 0.04 0.04 0.00 0.03 0.11 0.18 0.11 0.04 0.01 0.02 0.01
0.00 0.00 0.00 0.00 0.00 0.00 0.00 0.00 0.00 0.00 0.00 0.00 0.00 0.00 0.00 0.00 0.00 0.00 0.05 0.09 0.10 0.14 0.19 0.22 0.24 0.31 0.34 0.51 0.59 0.52 0.28 0.16 0.09 0.08 0.11 0.14 0.11 0.06 0.07 0.05 0.00 0.02 0.03 0.07 0.06 0.03 0.04 0.00 0.00
0.00 0.00 0.00 0.00 0.00 0.00 0.00 0.00 0.00 0.00 0.00 0.00 0.00 0.00 0.00 0.00 0.00 0.00 0.02 0.06 0.10 0.13 0.14 0.19 0.24 0.24 0.26 0.25 0.31 0.36 0.40 0.36 0.27 0.13 0.16 0.13 0.11 0.10 0.12 0.06 0.01 0.03 0.02 0.02 0.02 0.01 0.01 0.02 0.01
0.00 0.00 0.00 0.00 0.00 0.00 0.00 0.00 0.00 0.00 0.00 0.00 0.00 0.00 0.00 0.00 0.00 0.00 0.00 0.01 0.07 0.10 0.13 0.14 0.17 0.21 0.21 0.22 0.31 0.43 0.42 0.36 0.26 0.17 0.14 0.19 0.09 0.03 0.07 0.04 0.01 0.04 0.03 0.02 0.02 0.01 0.00 0.00 0.00
0.00 0.00 0.00 0.00 0.00 0.00 0.00 0.00 0.00 0.00 0.00 0.00 0.00 0.00 0.00 0.00 0.00 0.00 0.00 0.00 0.04 0.06 0.09 0.10 0.13 0.21 0.28 0.25 0.24 0.28 0.32 0.30 0.18 0.11 0.09 0.03 0.09 0.05 0.06 0.01 0.04 0.08 0.08 0.03 0.02 0.01 0.00 0.00 0.00
0.00 0.00 0.00 0.00 0.00 0.00 0.00 0.00 0.00 0.00 0.00 0.00 0.00 0.00 0.00 0.00 0.00 0.00 0.00 0.00 0.00 0.02 0.02 0.07 0.08 0.14 0.19 0.31 0.36 0.34 0.47 0.42 0.28 0.14 0.13 0.15 0.15 0.19 0.18 0.04 0.10 0.07 0.02 0.00 0.00 0.00 0.00 0.00 0.00
0.00 0.00 0.00 0.00 0.00 0.00 0.00 0.00 0.00 0.00 0.00 0.00 0.00 0.00 0.00 0.00 0.00 0.00 0.00 0.00 0.00 0.00 0.01 0.05 0.07 0.12 0.13 0.17 0.23 0.34 0.51 0.73 0.59 0.44 0.42 0.31 0.30 0.14 0.12 0.06 0.04 0.05 0.01 0.00 0.00 0.00 0.00 0.00 0.00
0.00 0.00 0.00 0.00 0.00 0.00 0.00 0.00 0.00 0.00 0.00 0.00 0.00 0.00 0.00 0.00 0.00 0.00 0.00 0.00 0.00 0.00 0.00 0.02 0.05 0.08 0.13 0.13 0.13 0.09 0.12 0.23 0.36 0.67 0.86 0.83 0.49 0.33 0.28 0.16 0.13 0.10 0.09 0.03 0.01 0.01 0.01 0.00 0.00
0.00 0.00 0.00 0.00 0.00 0.00 0.00 0.00 0.00 0.00 0.00 0.00 0.00 0.00 0.00 0.00 0.00 0.00 0.00 0.00 0.00 0.00 0.00 0.00 0.00 0.02 0.05 0.08 0.10 0.12 0.17 0.16 0.24 0.29 0.50 0.73 0.85 0.76 0.67 0.41 0.28 0.21 0.18 0.12 0.05 0.04 0.01 0.00 0.00
0.00 0.00 0.00 0.00 0.00 0.00 0.00 0.00 0.00 0.00 0.00 0.00 0.00 0.00 0.00 0.00 0.00 0.00 0.00 0.00 0.00 0.00 0.00 0.00 0.00 0.00 0.00 0.02 0.04 0.09 0.12 0.15 0.14 0.14 0.26 0.47 0.48 0.63 0.80 0.58 0.35 0.33 0.29 0.20 0.10 0.06 0.01 0.00 0.00
0.00 0.00 0.00 0.00 0.00 0.00 0.00 0.00 0.00 0.00 0.00 0.00 0.00 0.00 0.00 0.00 0.00 0.00 0.00 0.00 0.00 0.00 0.00 0.00 0.00 0.00 0.00 0.00 0.00 0.01 0.04 0.09 0.08 0.09 0.14 0.25 0.43 0.51 0.74 0.64 0.42 0.33 0.32 0.24 0.14 0.06 0.01 0.00 0.00
0.00 0.00 0.00 0.00 0.00 0.00 0.00 0.00 0.00 0.00 0.00 0.00 0.00 0.00 0.00 0.00 0.00 0.00 0.00 0.00 0.00 0.00 0.00 0.00 0.00 0.00 0.00 0.00 0.00 0.00 0.00 0.02 0.04 0.08 0.10 0.16 0.22 0.30 0.39 0.40 0.66 0.39 0.30 0.23 0.15 0.08 0.04 0.00 0.00
0.00 0.00 0.00 0.00 0.00 0.00 0.00 0.00 0.00 0.00 0.00 0.00 0.00 0.00 0.00 0.00 0.00 0.00 0.00 0.00 0.00 0.00 0.00 0.00 0.00 0.00 0.00 0.00 0.00 0.00 0.00 0.00 0.01 0.03 0.06 0.12 0.16 0.16 0.25 0.26 0.27 0.33 0.25 0.21 0.09 0.10 0.06 0.02 0.00
0.00 0.00 0.00 0.00 0.00 0.00 0.00 0.00 0.00 0.00 0.00 0.00 0.00 0.00 0.00 0.00 0.00 0.00 0.00 0.00 0.00 0.00 0.00 0.00 0.00 0.00 0.00 0.00 0.00 0.00 0.00 0.00 0.00 0.01 0.03 0.09 0.19 0.22 0.18 0.17 0.18 0.28 0.28 0.28 0.22 0.11 0.08 0.03 0.01
0.00 0.00 0.00 0.00 0.00 0.00 0.00 0.00 0.00 0.00 0.01 0.03 0.02 0.03 0.03 0.01 0.00 0.00 0.00 0.00 0.00 0.00 0.00 0.00 0.00 0.00 0.00 0.00 0.00 0.00 0.00 0.00 0.00 0.00 0.00 0.02 0.08 0.16 0.16 0.16 0.13 0.13 0.17 0.23 0.24 0.12 0.08 0.06 0.02
0.00 0.00 0.00 0.00 0.00 0.00 0.00 0.00 0.00 0.00 0.00 0.00 0.01 0.03 0.03 0.05 0.02 0.02 0.02 0.02 0.01 0.01 0.01 0.00 0.00 0.00 0.00 0.00 0.00 0.00 0.00 0.00 0.00 0.00 0.00 0.00 0.00 0.05 0.13 0.15 0.19 0.15 0.10 0.09 0.12 0.12 0.10 0.08 0.06
0.00 0.00 0.00 0.00 0.00 0.00 0.00 0.00 0.00 0.00 0.00 0.00 0.00 0.02 0.04 0.06 0.03 0.02 0.01 0.01 0.03 0.05 0.06 0.05 0.03 0.01 0.01 0.00 0.00 0.00 0.00 0.00 0.00 0.00 0.00 0.00 0.01 0.01 0.04 0.07 0.11 0.14 0.12 0.09 0.06 0.07 0.14 0.16 0.08
0.00 0.00 0.00 0.00 0.00 0.00 0.00 0.00 0.02 0.00 0.00 0.01 0.02 0.02 0.02 0.07 0.05 0.04 0.04 0.04 0.03 0.03 0.03 0.03 0.05 0.06 0.05 0.03 0.02 0.03 0.02 0.01 0.00 0.00 0.00 0.00 0.01 0.02 0.03 0.05 0.09 0.07 0.13 0.10 0.08 0.05 0.06 0.18 0.31
0.00 0.00 0.00 0.00 0.00 0.00 0.00 0.00 0.03 0.04 0.05 0.02 0.01 0.01 0.01 0.05 0.06 0.04 0.03 0.02 0.02 0.02 0.02 0.02 0.01 0.01 0.03 0.04 0.05 0.06 0.06 0.04 0.02 0.01 0.01 0.01 0.01 0.03 0.05 0.04 0.06 0.07 0.09 0.12 0.10 0.08 0.06 0.05 0.09
0.00 0.00 0.00 0.00 0.00 0.00 0.00 0.01 0.02 0.03 0.03 0.04 0.03 0.01 0.01 0.04 0.05 0.04 0.03 0.03 0.03 0.03 0.03 0.03 0.02 0.01 0.01 0.02 0.03 0.04 0.05 0.06 0.06 0.05 0.05 0.04 0.02 0.02 0.02 0.03 0.05 0.07 0.08 0.10 0.14 0.11 0.08 0.07 0.08
0.00 0.00 0.00 0.00 0.00 0.00 0.00 0.01 0.02 0.01 0.02 0.02 0.01 0.00 0.00 0.01 0.01 0.00 0.01 0.01 0.01 0.01 0.03 0.04 0.04 0.04 0.03 0.03 0.05 0.05 0.05 0.05 0.04 0.07 0.08 0.08 0.08 0.05 0.05 0.04 0.05 0.07 0.09 0.09 0.11 0.11 0.08 0.06 0.06
0.00 0.00 0.00 0.01 0.00 0.01 0.02 0.01 0.02 0.01 0.00 0.00 0.00 0.00 0.00 0.00 0.00 0.00 0.00 0.00 0.00 0.00 0.00 0.02 0.03 0.04 0.06 0.07 0.08 0.06 0.07 0.07 0.06 0.05 0.08 0.12 0.13 0.12 0.11 0.10 0.09 0.07 0.11 0.12 0.11 0.09 0.07 0.06 0.06
0.00 0.00 0.00 0.01 0.01 0.01 0.02 0.01 0.00 0.00 0.00 0.00 0.00 0.00 0.00 0.00 0.00 0.00 0.00 0.00 0.00 0.00 0.00 0.00 0.01 0.04 0.10 0.14 0.14 0.15 0.14 0.13 0.14 0.10 0.09 0.12 0.14 0.16 0.13 0.10 0.08 0.10 0.12 0.14 0.17 0.12 0.08 0.06 0.05
0.00 0.00 0.00 0.00 0.01 0.02 0.01 0.00 0.00 0.00 0.00 0.00 0.00 0.00 0.00 0.00 0.00 0.00 0.00 0.00 0.00 0.00 0.00 0.00 0.00 0.02 0.06 0.13 0.16 0.19 0.18 0.21 0.16 0.29 0.20 0.14 0.19 0.19 0.18 0.16 0.10 0.08 0.08 0.13 0.16 0.13 0.13 0.08 0.06
0.00 0.00 0.00 0.00 0.00 0.00 0.01 0.01 0.00 0.00 0.00 0.00 0.00 0.00 0.00 0.00 0.00 0.00 0.00 0.00 0.00 0.00 0.00 0.00 0.00 0.01 0.03 0.10 0.20 0.20 0.26 0.26 0.29 0.23 0.50 0.33 0.24 0.36 0.23 0.20 0.17 0.11 0.08 0.09 0.13 0.13 0.12 0.11 0.07